This is the latest recevied weather packets stored in our database for station/object PACCTY. If no packets are shown the sender has not sent any weather packets the latest 10 day(s).
| Time | Temp. | Humidity | Pressure | Rain* | Wind** | Luminosity | Snow |
|---|---|---|---|---|---|---|---|
| 1777771513 | 15° C | 82% | 1010.5 hPa | 0 mm | - | - | - |
| 1777770913 | 15° C | 81% | 1010.6 hPa | 0 mm | - | - | - |
| 1777770313 | 15.56° C | 81% | 1010.7 hPa | 0 mm | - | - | - |
| 1777769714 | 15.56° C | 81% | 1010.6 hPa | 0 mm | - | - | - |
| 1777769413 | 15.56° C | 80% | 1010.6 hPa | 0 mm | - | - | - |
| 1777768513 | 15° C | 79% | 1010.5 hPa | 0 mm | - | - | - |
| 1777768213 | 15° C | 79% | 1010.5 hPa | 0 mm | - | - | - |
| 1777767913 | 15° C | 79% | 1010.5 hPa | 0 mm | - | - | - |
| 1777767612 | 15° C | 78% | 1010.5 hPa | 0 mm | - | - | - |
| 1777767313 | 15° C | 78% | 1010.6 hPa | 0 mm | - | - | - |
| 1777767013 | 15° C | 77% | 1010.7 hPa | 0 mm | - | - | - |
| 1777766713 | 15° C | 77% | 1010.7 hPa | 0 mm | - | - | - |
| 1777766413 | 15° C | 78% | 1010.7 hPa | 0 mm | - | - | - |
| 1777766113 | 15° C | 78% | 1010.8 hPa | 0 mm | - | - | - |
| 1777765813 | 15° C | 78% | 1010.8 hPa | 0 mm | - | - | - |
| 1777765516 | 15° C | 76% | 1010.8 hPa | 0 mm | - | - | - |
| 1777765213 | 15° C | 77% | 1011 hPa | 0 mm | - | - | - |
| 1777764913 | 15.56° C | 76% | 1011 hPa | 0 mm | - | - | - |
| 1777763713 | 16.11° C | 72% | 1011.2 hPa | 0 mm | - | - | - |
| 1777763113 | 17.22° C | 70% | 1011.4 hPa | 0 mm | - | - | - |
| 1777762513 | 17.22° C | 72% | 1011.4 hPa | 0 mm | - | - | - |
| 1777762213 | 17.22° C | 72% | 1011.5 hPa | 0 mm | - | - | - |
| 1777761913 | 17.22° C | 71% | 1011.5 hPa | 0 mm | - | - | - |
| 1777760413 | 16.67° C | 74% | 1011.8 hPa | 0 mm | - | - | - |
| 1777760113 | 16.67° C | 72% | 1011.9 hPa | 0 mm | - | - | - |
* Rain latest hour (hover to see other rain measurements)
** Current wind speed in m/s (hover to see current wind gust speed)